Volver al catálogo

STARLINK-4779

ActivoComunicacionesVLEO
NORAD 53864·PAYLOAD·🇺🇸 United States

Lanzado Sep 19, 2022 desde Cape Canaveral Space Force Station

Loading…

Próximos Pases (próximas 24 horas)

TLE

ActualizadoSource: CelesTrak SupGP

Época: Sep 15, 2026, 02:06 UTC

1 53864C 22114AY  26258.08798611  .00041016  00000+0  13196-2 0  2580
2 53864  53.1571 143.7046 0001268  84.0204 172.0159 15.31666980    11

Sigue STARLINK-4779 en tiempo real con AllMySat

Download on the App Store